Dades meteomassalio
Diari Summary for Maig 7, 2017 Units:  Metric    English   Both
« Previous Day
Next Day »
Diari Semanal Mensual Anual Personalitzat
  Maxima: Minima: Mijana:
Temperatura: -17.8 °C -13.4 °C -8.7 °C
Rosada: -17.8 °C -16.2 °C -14.9 °C
Humitat: Humidity % 27 % 50 %
Velocitat del vent: 0 km/h 0 km/h 17.1 km/h
Racha vent: 0 km/h - -
Vent:- - WNW
Pressio: 0 hPa 34442.4 hPa -
Pluja: 0 mm    
Historical Graphs
 
 
Tabular Data for Maig 7, 2017
Time Temperature Dew Point Pressure Wind Wind Speed Wind Gust Humidity Rainfall Rate (Hourly) solar Conditions
-17.8 °C -17.8 °C 0 hPa Calm     Humidity % 0 mm SolarRadiationWatts/m^2 W/m2 Conditions
00:01 -10.5 °C -16 °C 34533.8 hPa Calm     51 % 0 mm 0.0 W/m2 RA
00:06 -10.7 °C -16.2 °C 34533.8 hPa Calm     51 % 0 mm 0.0 W/m2 CLR
00:07 -10.7 °C -16 °C 34533.8 hPa Calm     52 % 0 mm 0.0 W/m2 CLR
00:12 -10.7 °C -16 °C 34533.8 hPa Calm     52 % 0 mm 0.0 W/m2 CLR
00:17 -10.8 °C -16 °C 34533.8 hPa Calm     53 % 0 mm 0.0 W/m2 CLR
00:22 -10.9 °C -16.1 °C 34533.8 hPa Calm     53 % 0 mm 0.0 W/m2 CLR
00:27 -10.9 °C -16.1 °C 34533.8 hPa Calm     53 % 0 mm 0.0 W/m2 CLR
00:32 -10.9 °C -16.1 °C 34544 hPa Calm     53 % 0 mm 0.0 W/m2 CLR
00:37 -10.9 °C -16 °C 34544 hPa Calm     54 % 0 mm 0.0 W/m2 CLR
00:42 -11 °C -16.1 °C 34544 hPa Calm     54 % 0 mm 0.0 W/m2 CLR
00:47 -11.1 °C -15.9 °C 34544 hPa Calm     55 % 0 mm 0.0 W/m2 CLR
00:52 -11.1 °C -15.9 °C 34544 hPa Calm     55 % 0 mm 0.0 W/m2 CLR
00:57 -11.1 °C -15.9 °C 34544 hPa Calm     55 % 0 mm 0.0 W/m2 CLR
01:02 -11.1 °C -16 °C 34544 hPa Calm     55 % 0 mm 0.0 W/m2 CLR
01:07 -11.2 °C -15.9 °C 34544 hPa Calm     56 % 0 mm 0.0 W/m2 CLR
01:12 -11.2 °C -15.9 °C 34544 hPa Calm     56 % 0 mm 0.0 W/m2 CLR
01:17 -11.3 °C -15.9 °C 34544 hPa Calm     57 % 0 mm 0.0 W/m2 CLR
01:22 -11.3 °C -15.9 °C 34544 hPa Calm     57 % 0 mm 0.0 W/m2 CLR
01:27 -11.4 °C -15.9 °C 34544 hPa Calm     58 % 0 mm 0.0 W/m2 CLR
01:33 -11.5 °C -15.9 °C 34544 hPa Calm     58 % 0 mm 0.0 W/m2 CLR
01:38 -11.6 °C -15.8 °C 34544 hPa Calm     59 % 0 mm 0.0 W/m2 CLR
01:43 -11.6 °C -15.9 °C 34544 hPa Calm     59 % 0 mm 0.0 W/m2 CLR
01:48 -11.6 °C -15.9 °C 34544 hPa Calm     59 % 0 mm 0.0 W/m2 CLR
01:53 -11.6 °C -15.9 °C 34544 hPa Calm     59 % 0 mm 0.0 W/m2 CLR
01:58 -11.7 °C -15.8 °C 34533.8 hPa Calm     60 % 0 mm 0.0 W/m2 CLR
02:03 -11.7 °C -15.9 °C 34544 hPa Calm     60 % 0 mm 0.0 W/m2 CLR
02:08 -11.7 °C -15.7 °C 34544 hPa Calm     61 % 0 mm 0.0 W/m2 CLR
02:13 -11.7 °C -15.7 °C 34544 hPa Calm     61 % 0 mm 0.0 W/m2 CLR
02:18 -11.6 °C -15.7 °C 34544 hPa Calm     61 % 0 mm 0.0 W/m2 CLR
02:23 -11.7 °C -15.7 °C 34544 hPa Calm     61 % 0 mm 0.0 W/m2 CLR
02:28 -11.7 °C -15.7 °C 34544 hPa Calm     61 % 0 mm 0.0 W/m2 CLR
02:33 -11.8 °C -15.9 °C 34544 hPa Calm     61 % 0 mm 0.0 W/m2 CLR
02:38 -11.9 °C -15.8 °C 34554.1 hPa Calm     62 % 0 mm 0.0 W/m2 CLR
02:43 -11.9 °C -15.7 °C 34544 hPa Calm     63 % 0 mm 0.0 W/m2 CLR
02:48 -12 °C -15.6 °C 34554.1 hPa Calm     64 % 0 mm 0.0 W/m2 CLR
02:53 -12 °C -15.6 °C 34544 hPa Calm     64 % 0 mm 0.0 W/m2 CLR
02:58 -12.1 °C -15.7 °C 34554.1 hPa Calm     64 % 0 mm 0.0 W/m2 CLR
03:03 -12.1 °C -15.6 °C 34544 hPa Calm     65 % 0 mm 0.0 W/m2 CLR
03:08 -12.1 °C -15.6 °C 34544 hPa Calm     65 % 0 mm 0.0 W/m2 CLR
03:13 -12.2 °C -15.7 °C 34544 hPa Calm     65 % 0 mm 0.0 W/m2 CLR
03:18 -12.1 °C -15.4 °C 34544 hPa Calm     66 % 0 mm 0.0 W/m2 CLR
03:23 -12.1 °C -15.5 °C 34554.1 hPa Calm     65 % 0 mm 0.0 W/m2 CLR
03:28 -12 °C -15.5 °C 34554.1 hPa Calm     65 % 0 mm 0.0 W/m2 CLR
03:33 -12.1 °C -15.5 °C 34554.1 hPa Calm     65 % 0 mm 0.0 W/m2 CLR
03:38 -12.1 °C -15.6 °C 34554.1 hPa Calm     65 % 0 mm 0.0 W/m2 CLR
03:43 -12.2 °C -15.6 °C 34554.1 hPa Calm     66 % 0 mm 0.0 W/m2 CLR
03:48 -12.4 °C -15.6 °C 34554.1 hPa Calm     67 % 0 mm 0.0 W/m2 CLR
03:53 -12.4 °C -15.6 °C 34554.1 hPa Calm     67 % 0 mm 0.0 W/m2 CLR
03:58 -12.4 °C -15.6 °C 34554.1 hPa Calm     67 % 0 mm 0.0 W/m2 CLR
04:03 -12.4 °C -15.7 °C 34554.1 hPa Calm     67 % 0 mm 0.0 W/m2 CLR
04:08 -12.4 °C -15.6 °C 34554.1 hPa Calm     68 % 0 mm 0.0 W/m2 CLR
04:13 -12.4 °C -15.6 °C 34554.1 hPa Calm     68 % 0 mm 0.0 W/m2 CLR
04:18 -12.4 °C -15.5 °C 34544 hPa Calm     68 % 0 mm 0.0 W/m2 CLR
04:23 -12.4 °C -15.7 °C 34554.1 hPa Calm     67 % 0 mm 0.0 W/m2 CLR
04:28 -12.6 °C -15.7 °C 34554.1 hPa Calm     68 % 0 mm 0.0 W/m2 CLR
04:33 -12.8 °C -15.7 °C 34554.1 hPa Calm     70 % 0 mm 0.0 W/m2 CLR
04:38 -12.8 °C -15.7 °C 34554.1 hPa Calm     70 % 0 mm 0.0 W/m2 CLR
04:43 -12.8 °C -15.6 °C 34554.1 hPa Calm     71 % 0 mm 0.0 W/m2 CLR
04:48 -12.8 °C -15.6 °C 34554.1 hPa Calm     71 % 0 mm 0.0 W/m2 CLR
04:53 -12.8 °C -15.6 °C 34554.1 hPa Calm     71 % 0 mm 0.0 W/m2 CLR
04:58 -12.8 °C -15.6 °C 34554.1 hPa Calm     71 % 0 mm 0.0 W/m2 CLR
05:03 -12.8 °C -15.6 °C 34554.1 hPa Calm     71 % 0 mm 0.0 W/m2 CLR
05:08 -12.8 °C -15.6 °C 34554.1 hPa Calm     71 % 0 mm 0.0 W/m2 CLR
05:13 -12.9 °C -15.7 °C 34554.1 hPa Calm     71 % 0 mm 0.0 W/m2 CLR
05:18 -12.9 °C -15.7 °C 34544 hPa Calm     71 % 0 mm 0.0 W/m2 CLR
05:23 -12.9 °C -15.6 °C 34544 hPa Calm     72 % 0 mm 0.0 W/m2 CLR
05:24 -12.9 °C -15.6 °C 34544 hPa Calm     72 % 0 mm 0.0 W/m2 CLR
05:29 -12.9 °C -15.6 °C 34554.1 hPa Calm     72 % 0 mm 0.0 W/m2 CLR
05:34 -12.9 °C -15.6 °C 34554.1 hPa Calm     72 % 0 mm 0.0 W/m2 CLR
05:39 -12.9 °C -15.6 °C 34544 hPa Calm     72 % 0 mm 0.0 W/m2 CLR
05:44 -12.9 °C -15.6 °C 34544 hPa Calm     72 % 0 mm 0.0 W/m2 CLR
05:49 -12.9 °C -15.6 °C 34554.1 hPa Calm     72 % 0 mm 0.0 W/m2 CLR
05:54 -13 °C -15.7 °C 34554.1 hPa Calm     72 % 0 mm 0.0 W/m2 CLR
05:59 -13 °C -15.7 °C 34554.1 hPa Calm     72 % 0 mm 0.0 W/m2 CLR
06:04 -13.1 °C -15.7 °C 34544 hPa Calm     72 % 0 mm 0.0 W/m2 CLR
06:09 -13.1 °C -15.7 °C 34544 hPa Calm     72 % 0 mm 0.0 W/m2 CLR
06:14 -13.2 °C -15.8 °C 34544 hPa Calm     72 % 0 mm 0.0 W/m2 CLR
06:19 -13.2 °C -15.7 °C 34544 hPa Calm     73 % 0 mm 0.0 W/m2 CLR
06:24 -13.2 °C -15.8 °C 34544 hPa Calm     73 % 0 mm 0.0 W/m2 CLR
06:29 -13.3 °C -15.8 °C 34544 hPa Calm     73 % 0 mm 0.0 W/m2 CLR
06:34 -13.3 °C -15.7 °C 34544 hPa Calm     74 % 0 mm 0.0 W/m2 CLR
06:39 -13.3 °C -15.7 °C 34544 hPa Calm     74 % 0 mm 0.0 W/m2 CLR
06:44 -13.4 °C -15.8 °C 34544 hPa Calm     74 % 0 mm 0.0 W/m2 OVC
06:49 -13.4 °C -15.7 °C 34544 hPa Calm     75 % 0 mm 0.0 W/m2 OVC
06:54 -13.4 °C -15.7 °C 34554.1 hPa Calm     75 % 0 mm 5.0 W/m2 OVC
06:59 -13.4 °C -15.6 °C 34554.1 hPa Calm     76 % 0 mm 9.0 W/m2 BKN
07:04 -13.4 °C -15.6 °C 34554.1 hPa Calm     76 % 0 mm 11.0 W/m2 BKN
07:09 -13.4 °C -15.7 °C 34554.1 hPa Calm     75 % 0 mm 12.0 W/m2 BKN
07:14 -13.4 °C -15.7 °C 34554.1 hPa Calm     75 % 0 mm 14.0 W/m2 BKN
07:19 -13.4 °C -15.7 °C 34567.7 hPa Calm     75 % 0 mm 18.0 W/m2 BKN
07:24 -13.3 °C -15.6 °C 34567.7 hPa Calm     75 % 0 mm 23.0 W/m2 BKN
07:29 -13.1 °C -15.6 °C 34567.7 hPa Calm     74 % 0 mm 33.0 W/m2 BKN
07:34 -12.9 °C -15.4 °C 34567.7 hPa Calm     74 % 0 mm 39.0 W/m2 BKN
07:39 -12.8 °C -15.3 °C 34567.7 hPa Calm     73 % 0 mm 56.0 W/m2 SCT
07:44 -12.7 °C -15.3 °C 34577.8 hPa Calm     72 % 0 mm 72.0 W/m2 FEW
07:49 -12.5 °C -15.2 °C 34577.8 hPa Calm     72 % 0 mm 84.0 W/m2 FEW
07:54 -12.3 °C -15.1 °C 34577.8 hPa Calm     71 % 0 mm 102.0 W/m2 CLR
07:59 -12 °C -15 °C 34577.8 hPa Calm     69 % 0 mm 120.0 W/m2 CLR
08:04 -11.7 °C -15 °C 34577.8 hPa Calm     67 % 0 mm 134.0 W/m2 CLR
08:09 -11.5 °C -14.9 °C 34577.8 hPa Calm     66 % 0 mm 151.0 W/m2 CLR
08:14 -11.2 °C -14.8 °C 34577.8 hPa Calm     65 % 0 mm 174.0 W/m2 CLR
08:19 -11 °C -14.8 °C 34577.8 hPa Calm     63 % 0 mm 193.0 W/m2 CLR
08:24 -10.8 °C -14.6 °C 34567.7 hPa Calm     63 % 0 mm 211.0 W/m2 CLR
08:29 -10.6 °C -14.6 °C 34567.7 hPa Calm     61 % 0 mm 229.0 W/m2 CLR
08:34 -10.3 °C -14.5 °C 34567.7 hPa Calm     60 % 0 mm 248.0 W/m2 CLR
08:35 -10.3 °C -14.5 °C 34567.7 hPa Calm     60 % 0 mm 248.0 W/m2 CLR
08:40 -9.9 °C -14.3 °C 34567.7 hPa Calm     59 % 0 mm 262.0 W/m2 CLR
08:45 -9.7 °C -14.1 °C 34577.8 hPa Calm     59 % 0 mm 279.0 W/m2 CLR
08:50 -9.2 °C -14.1 °C 34567.7 hPa Calm     56 % 0 mm 294.0 W/m2 CLR
08:55 -8.8 °C -13.9 °C 34567.7 hPa Calm     55 % 0 mm 313.0 W/m2 CLR
09:00 -8.6 °C -13.9 °C 34577.8 hPa SSW 3.1 km/h   53 % 0 mm 329.0 W/m2 CLR
09:05 -8.4 °C -14.1 °C 34577.8 hPa WNW 23.3 km/h 23.3 km/h 51 % 0 mm 346.0 W/m2 CLR
09:10 -8.2 °C -14 °C 34577.8 hPa WNW 12.9 km/h 12.9 km/h 50 % 0 mm 360.0 W/m2 CLR
09:15 -8.1 °C -14.1 °C 34577.8 hPa WNW 20.8 km/h 20.8 km/h 49 % 0 mm 380.0 W/m2 CLR
09:20 -8 °C -14 °C 34567.7 hPa WNW 15.6 km/h 15.6 km/h 49 % 0 mm 394.0 W/m2 CLR
09:25 -7.9 °C -13.9 °C 34567.7 hPa NW 20.8 km/h 21.2 km/h 49 % 0 mm 410.0 W/m2 CLR
09:30 -7.9 °C -14.1 °C 34567.7 hPa NW 29.8 km/h 29.8 km/h 48 % 0 mm 378.0 W/m2 CLR
09:35 -7.8 °C -14 °C 34567.7 hPa NNW 29.8 km/h 29.8 km/h 48 % 0 mm 47.0 W/m2 CLR
09:40 -7.7 °C -13.9 °C 34567.7 hPa NW 23.8 km/h 23.8 km/h 48 % 0 mm 459.0 W/m2 CLR
09:45 -7.6 °C -13.8 °C 34567.7 hPa NW 28.5 km/h 28.5 km/h 48 % 0 mm 475.0 W/m2 CLR
09:50 -7.6 °C -13.9 °C 34567.7 hPa WNW 29.8 km/h 29.8 km/h 47 % 0 mm 489.0 W/m2 CLR
09:55 -7.6 °C -13.9 °C 34567.7 hPa NW 32.8 km/h 32.8 km/h 47 % 0 mm 504.0 W/m2 CLR
10:00 -7.6 °C -14 °C 34567.7 hPa NW 33.6 km/h 33.6 km/h 47 % 0 mm 522.0 W/m2 CLR
10:05 -7.6 °C -13.9 °C 34567.7 hPa NW 38.8 km/h 38.8 km/h 47 % 0 mm 536.0 W/m2 CLR
10:10 -7.4 °C -14 °C 34567.7 hPa NW 38.8 km/h 38.8 km/h 46 % 0 mm 550.0 W/m2 CLR
10:15 -7.4 °C -13.8 °C 34567.7 hPa NW 33.6 km/h 33.6 km/h 47 % 0 mm 568.0 W/m2 CLR
10:20 -7.3 °C -13.9 °C 34567.7 hPa NW 29.8 km/h 29.8 km/h 46 % 0 mm 582.0 W/m2 CLR
10:25 -7.2 °C -13.9 °C 34567.7 hPa NW 33.6 km/h 33.6 km/h 45 % 0 mm 596.0 W/m2 CLR
10:30 -7.2 °C -13.9 °C 34567.7 hPa NW 29.8 km/h 29.8 km/h 45 % 0 mm 610.0 W/m2 CLR
10:35 -7.1 °C -13.8 °C 34567.7 hPa NW 35.7 km/h 35.7 km/h 45 % 0 mm 624.0 W/m2 CLR
10:40 -7.1 °C -14 °C 34567.7 hPa NW 36.2 km/h 36.2 km/h 44 % 0 mm 638.0 W/m2 CLR
10:41 -7.1 °C -13.8 °C 34567.7 hPa NW 35.7 km/h 35.7 km/h 45 % 0 mm 642.0 W/m2 CLR
10:46 -6.9 °C -13.8 °C 34567.7 hPa NW 29.8 km/h 29.8 km/h 45 % 0 mm 654.0 W/m2 CLR
10:51 -6.9 °C -13.9 °C 34567.7 hPa NNW 38.8 km/h 38.8 km/h 44 % 0 mm 668.0 W/m2 CLR
10:56 -6.8 °C -13.8 °C 34567.7 hPa WNW 29.8 km/h 29.8 km/h 44 % 0 mm 682.0 W/m2 CLR
11:01 -6.8 °C -13.9 °C 34567.7 hPa West 38.8 km/h 38.8 km/h 43 % 0 mm 691.0 W/m2 CLR
11:06 -6.6 °C -13.8 °C 34567.7 hPa NNW 23.8 km/h 23.8 km/h 43 % 0 mm 705.0 W/m2 CLR
11:11 -6.4 °C -13.7 °C 34567.7 hPa WNW 31.1 km/h 31.1 km/h 43 % 0 mm 717.0 W/m2 CLR
11:16 -6.3 °C -13.8 °C 34567.7 hPa NNW 36.2 km/h 36.2 km/h 42 % 0 mm 731.0 W/m2 CLR
11:21 -6.2 °C -13.4 °C 34567.7 hPa WNW 29.8 km/h 29.8 km/h 43 % 0 mm 738.0 W/m2 CLR
11:26 -6.1 °C -13.4 °C 34567.7 hPa WNW 29.8 km/h 29.8 km/h 43 % 0 mm 752.0 W/m2 CLR
11:31 -6.1 °C -13.7 °C 34567.7 hPa WNW 26.9 km/h 26.9 km/h 41 % 0 mm 761.0 W/m2 CLR
11:36 -5.9 °C -13.8 °C 34567.7 hPa WNW 29.8 km/h 29.8 km/h 40 % 0 mm 775.0 W/m2 CLR
11:41 -5.9 °C -13.8 °C 34567.7 hPa NNW 35.7 km/h 35.7 km/h 40 % 0 mm 788.0 W/m2 CLR
11:46 -5.9 °C -13.8 °C 34567.7 hPa North 35.7 km/h 35.7 km/h 40 % 0 mm 795.0 W/m2 CLR
11:51 -5.9 °C -13.8 °C 34567.7 hPa North 26.9 km/h 26.9 km/h 40 % 0 mm 803.0 W/m2 CLR
11:56 -5.8 °C -13.8 °C 34567.7 hPa NNW 38.8 km/h 38.8 km/h 39 % 0 mm 812.0 W/m2 CLR
12:01 -5.7 °C -13.8 °C 34567.7 hPa NNW 32.8 km/h 32.8 km/h 39 % 0 mm 823.0 W/m2 CLR
12:07 -5.6 °C -13.7 °C 34567.7 hPa NW 47.6 km/h 47.6 km/h 39 % 0 mm 835.0 W/m2 CLR
12:12 -5.7 °C -13.7 °C 34554.1 hPa NW 23.8 km/h 23.8 km/h 39 % 0 mm 844.0 W/m2 CLR
12:17 -5.4 °C -13.6 °C 34554.1 hPa North 6 km/h 6 km/h 39 % 0 mm 853.0 W/m2 CLR
12:22 -5.4 °C -14 °C 34554.1 hPa North 38.8 km/h 38.8 km/h 37 % 0 mm 854.0 W/m2 CLR
12:27 -5.4 °C -13.7 °C 34554.1 hPa WNW 38.8 km/h 38.8 km/h 38 % 0 mm 867.0 W/m2 CLR
12:32 -5.3 °C -13.7 °C 34554.1 hPa WNW 6 km/h 6 km/h 38 % 0 mm 886.0 W/m2 CLR
12:37 -5.2 °C -13.6 °C 34554.1 hPa NW 23.8 km/h 23.8 km/h 38 % 0 mm 884.0 W/m2 CLR
12:42 -5.2 °C -13.7 °C 34554.1 hPa NNW 36.2 km/h 36.2 km/h 37 % 0 mm 896.0 W/m2 CLR
12:47 -5.3 °C -13.8 °C 34554.1 hPa NNW 31.1 km/h 31.1 km/h 37 % 0 mm 907.0 W/m2 CLR
12:48 -5.3 °C -13.7 °C 34554.1 hPa North 23.8 km/h 23.8 km/h 38 % 0 mm 912.0 W/m2 CLR
12:53 -5.3 °C -13.7 °C 34544 hPa North 32.8 km/h 32.8 km/h 38 % 0 mm 925.0 W/m2 CLR
12:58 -5.2 °C -13.8 °C 34544 hPa North 29.8 km/h 29.8 km/h 37 % 0 mm 911.0 W/m2 CLR
13:03 -5.1 °C -13.7 °C 34544 hPa WNW 32.8 km/h 32.8 km/h 37 % 0 mm 918.0 W/m2 CLR
13:08 -4.9 °C -13.6 °C 34544 hPa NNE 23.8 km/h 23.8 km/h 37 % 0 mm 944.0 W/m2 CLR
13:13 -4.9 °C -13.9 °C 34533.8 hPa NW 29.8 km/h 29.8 km/h 35 % 0 mm 944.0 W/m2 CLR
13:18 -4.7 °C -13.8 °C 34533.8 hPa NNW 36.2 km/h 36.2 km/h 35 % 0 mm 944.0 W/m2 CLR
13:23 -4.8 °C -13.9 °C 34533.8 hPa NNW 50.7 km/h 50.7 km/h 35 % 0 mm 944.0 W/m2 CLR
13:28 -4.9 °C -14.2 °C 34533.8 hPa North 35.7 km/h 35.7 km/h 34 % 0 mm 962.0 W/m2 CLR
13:33 -4.8 °C -14.6 °C 34533.8 hPa WNW 50.7 km/h 50.7 km/h 32 % 0 mm 1023.0 W/m2 CLR
13:38 -4.8 °C -14.6 °C 34533.8 hPa NW 20.9 km/h 20.9 km/h 32 % 0 mm 1056.0 W/m2 CLR
13:43 -4.6 °C -14.2 °C 34533.8 hPa NW 41.7 km/h 41.7 km/h 33 % 0 mm 1079.0 W/m2 CLR
13:48 -4.8 °C -14.3 °C 34520.3 hPa North 29.8 km/h 29.8 km/h 33 % 0 mm 327.0 W/m2 CLR
13:53 -4.8 °C -14.3 °C 34520.3 hPa North 50.7 km/h 50.7 km/h 33 % 0 mm 977.0 W/m2 CLR
13:58 -4.6 °C -14.7 °C 34520.3 hPa NW 35.7 km/h 35.7 km/h 31 % 0 mm 958.0 W/m2 CLR
14:03 -4.7 °C -14.3 °C 34520.3 hPa NNW 56.6 km/h 56.6 km/h 33 % 0 mm 951.0 W/m2 CLR
14:13 -4.5 °C -14.3 °C 34520.3 hPa NNW 32.8 km/h 32.8 km/h 32 % 0 mm 953.0 W/m2 CLR
14:18 -4.3 °C -14.2 °C 34520.3 hPa WNW 44.7 km/h 44.7 km/h 32 % 0 mm 969.0 W/m2 CLR
14:23 -4.5 °C -14.3 °C 34520.3 hPa NW 26.9 km/h 26.9 km/h 32 % 0 mm 970.0 W/m2 CLR
14:28 -4.4 °C -14 °C 34510.1 hPa NW 59.5 km/h 59.5 km/h 33 % 0 mm 937.0 W/m2 CLR
14:33 -4.3 °C -13.9 °C 34510.1 hPa WNW 38.8 km/h 38.8 km/h 33 % 0 mm 939.0 W/m2 CLR
14:38 -4.3 °C -14.2 °C 34510.1 hPa NW 23.3 km/h 23.3 km/h 32 % 0 mm 930.0 W/m2 CLR
14:43 -4.2 °C -14.1 °C 34510.1 hPa NW 35.7 km/h 35.7 km/h 32 % 0 mm 921.0 W/m2 CLR
14:48 -4.2 °C -14.3 °C 34510.1 hPa NW 44.7 km/h 44.7 km/h 31 % 0 mm 914.0 W/m2 CLR
14:53 -4.1 °C -14.8 °C 34496.6 hPa WNW 32.8 km/h 32.8 km/h 29 % 0 mm 912.0 W/m2 CLR
14:58 -4.2 °C -14.6 °C 34496.6 hPa NNW 44.7 km/h 44.7 km/h 30 % 0 mm 905.0 W/m2 CLR
15:03 -4.2 °C -14.9 °C 34496.6 hPa WNW 38.8 km/h 38.8 km/h 29 % 0 mm 902.0 W/m2 CLR
15:08 -4.3 °C -14.7 °C 34496.6 hPa North 29.8 km/h 29.8 km/h 30 % 0 mm 893.0 W/m2 CLR
15:13 -4.2 °C -14.9 °C 34496.6 hPa NNW 32.8 km/h 32.8 km/h 29 % 0 mm 886.0 W/m2 CLR
15:18 -4.1 °C -14.8 °C 34496.6 hPa North 44.7 km/h 44.7 km/h 29 % 0 mm 881.0 W/m2 CLR
15:19 -4.1 °C -14.8 °C 34496.6 hPa North 44.7 km/h 44.7 km/h 29 % 0 mm 881.0 W/m2 CLR
15:24 -4.3 °C -14.7 °C 34496.6 hPa NW 29.8 km/h 29.8 km/h 30 % 0 mm 875.0 W/m2 CLR
15:25 -4.3 °C -14.7 °C 34496.6 hPa North 29.8 km/h 29.8 km/h 30 % 0 mm 872.0 W/m2 CLR
15:30 -4.1 °C -14.6 °C 34496.6 hPa NW 41.7 km/h 41.7 km/h 30 % 0 mm 865.0 W/m2 CLR
15:35 -4.1 °C -14.8 °C 34486.4 hPa NNW 46.7 km/h 46.7 km/h 29 % 0 mm 856.0 W/m2 CLR
15:40 -4 °C -14.9 °C 34486.4 hPa NW 38.8 km/h 38.8 km/h 28 % 0 mm 853.0 W/m2 CLR
15:45 -4 °C -14.9 °C 34486.4 hPa NNW 47.6 km/h 47.6 km/h 28 % 0 mm 842.0 W/m2 CLR
15:50 -3.9 °C -14.7 °C 34486.4 hPa NW 47.6 km/h 47.6 km/h 29 % 0 mm 833.0 W/m2 CLR
15:55 -3.9 °C -14.7 °C 34486.4 hPa NW 36.2 km/h 36.2 km/h 29 % 0 mm 824.0 W/m2 CLR
16:00 -4 °C -14.9 °C 34486.4 hPa North 50.7 km/h 50.7 km/h 28 % 0 mm 816.0 W/m2 CLR
16:05 -4.1 °C -15 °C 34476.3 hPa North 29.8 km/h 29.8 km/h 28 % 0 mm 807.0 W/m2 CLR
16:10 -4 °C -15.2 °C 34476.3 hPa NNW 29.8 km/h 29.8 km/h 27 % 0 mm 796.0 W/m2 CLR
16:15 -3.9 °C -14.9 °C 34462.7 hPa North 36.2 km/h 36.2 km/h 28 % 0 mm 788.0 W/m2 CLR
16:20 -3.8 °C -15.2 °C 34462.7 hPa NNE 29.8 km/h 30.1 km/h 27 % 0 mm 775.0 W/m2 CLR
16:25 -3.9 °C -14.9 °C 34462.7 hPa NW 53.6 km/h 53.6 km/h 28 % 0 mm 768.0 W/m2 CLR
16:30 -3.9 °C -14.9 °C 34462.7 hPa NNW 47.6 km/h 47.6 km/h 28 % 0 mm 756.0 W/m2 CLR
16:35 -3.9 °C -15.2 °C 34462.7 hPa North 44.7 km/h 44.7 km/h 27 % 0 mm 745.0 W/m2 CLR
16:37 -4 °C -15.2 °C 34462.7 hPa NNW 23.8 km/h 23.8 km/h 27 % 0 mm 740.0 W/m2 CLR
16:42 -3.8 °C -14.8 °C 34462.7 hPa WNW 11.9 km/h 11.9 km/h 28 % 0 mm 729.0 W/m2 CLR
16:47 -3.8 °C -14.8 °C 34462.7 hPa NNW 32.8 km/h 32.8 km/h 28 % 0 mm 714.0 W/m2 CLR
16:52 -3.7 °C -14.8 °C 34462.7 hPa NNW 44.7 km/h 44.7 km/h 28 % 0 mm 703.0 W/m2 CLR
16:57 -3.8 °C -15.1 °C 34452.6 hPa NNW 56.6 km/h 56.6 km/h 27 % 0 mm 693.0 W/m2 CLR
17:02 -3.7 °C -14.9 °C 34452.6 hPa NW 38.8 km/h 38.8 km/h 27 % 0 mm 680.0 W/m2 CLR
17:07 -3.7 °C -15 °C 34452.6 hPa NNW 38.8 km/h 38.8 km/h 27 % 0 mm 664.0 W/m2 CLR
17:12 -3.8 °C -15.1 °C 34452.6 hPa North 32.8 km/h 32.8 km/h 27 % 0 mm 650.0 W/m2 CLR
17:17 -3.8 °C -14.8 °C 34452.6 hPa NNE 29.8 km/h 29.8 km/h 28 % 0 mm 640.0 W/m2 CLR
17:18 -3.8 °C -15.1 °C 34452.6 hPa NNW 41.7 km/h 41.7 km/h 27 % 0 mm 638.0 W/m2 CLR
17:23 -3.8 °C -15.1 °C 34452.6 hPa NW 47.6 km/h 47.6 km/h 27 % 0 mm 622.0 W/m2 CLR
17:28 -3.7 °C -14.7 °C 34452.6 hPa NW 29.8 km/h 29.8 km/h 28 % 0 mm 610.0 W/m2 CLR
17:33 -3.7 °C -15 °C 34442.4 hPa NNW 29.8 km/h 29.8 km/h 27 % 0 mm 594.0 W/m2 CLR
17:38 -3.6 °C -14.9 °C 34452.6 hPa North 41.7 km/h 41.7 km/h 27 % 0 mm 580.0 W/m2 CLR
17:43 -3.6 °C -14.9 °C 34442.4 hPa NNW 41.7 km/h 41.7 km/h 27 % 0 mm 564.0 W/m2 CLR
17:45 -3.6 °C -14.9 °C 34442.4 hPa NW 41.7 km/h 41.7 km/h 27 % 0 mm 559.0 W/m2 CLR
Lo Temps de Massalio
Compliments of Weather Underground - 1 mb